Rough River Lake Weather Center

Moon Phase Calendar



Rough River Lake Water Level
Online Cameras

 


      

Current Conditions in Leitchfield
4/16/2024 5:06:27 AM

65°F
Feels Like 66
Clouds
Humidity
87%
Pressure
29.97"
Wind
6.8 mph (S)
Dew Point
61°F
UV Index
0/10 (Low)
Visibility
6 mi

Hourly Forecast

Date & Time Tue, Apr 16
5:00 AM
Tue, Apr 16
6:00 AM
Tue, Apr 16
7:00 AM
Tue, Apr 16
8:00 AM
Tue, Apr 16
9:00 AM
Tue, Apr 16
10:00 AM
Tue, Apr 16
11:00 AM
Tue, Apr 16
12:00 PM
Tue, Apr 16
1:00 PM
Tue, Apr 16
2:00 PM
Tue, Apr 16
3:00 PM
Tue, Apr 16
4:00 PM
Tue, Apr 16
5:00 PM
Tue, Apr 16
6:00 PM
Tue, Apr 16
7:00 PM
Tue, Apr 16
8:00 PM
Tue, Apr 16
9:00 PM
Tue, Apr 16
10:00 PM
Tue, Apr 16
11:00 PM
Wed, Apr 17
12:00 AM
Wed, Apr 17
1:00 AM
Wed, Apr 17
2:00 AM
Wed, Apr 17
3:00 AM
Wed, Apr 17
4:00 AM
Wed, Apr 17
5:00 AM
Wed, Apr 17
6:00 AM
Wed, Apr 17
7:00 AM
Wed, Apr 17
8:00 AM
Wed, Apr 17
9:00 AM
Wed, Apr 17
10:00 AM
Wed, Apr 17
11:00 AM
Wed, Apr 17
12:00 PM
Wed, Apr 17
1:00 PM
Wed, Apr 17
2:00 PM
Wed, Apr 17
3:00 PM
Wed, Apr 17
4:00 PM
Wed, Apr 17
5:00 PM
Wed, Apr 17
6:00 PM
Wed, Apr 17
7:00 PM
Wed, Apr 17
8:00 PM
Wed, Apr 17
9:00 PM
Wed, Apr 17
10:00 PM
Wed, Apr 17
11:00 PM
Thu, Apr 18
12:00 AM
Thu, Apr 18
1:00 AM
Thu, Apr 18
2:00 AM
Thu, Apr 18
3:00 AM
Thu, Apr 18
4:00 AM
Condition
Clouds

Clouds

Clouds

Clouds

Clouds

Clouds

Clouds

Clouds

Clouds

Clouds

Clouds

Clouds

Clouds

Clouds

Clouds

Clouds

Clouds

Clouds

Clouds

Rain

Rain

Rain

Rain

Rain

Rain

Clouds

Clouds

Clouds

Clouds

Rain

Rain

Rain

Rain

Rain

Rain

Rain

Clouds

Clouds

Clouds

Clear

Clear

Clear

Clear

Clear

Clear

Clear

Clear

Clear
Temperature 65°F65°F65°F66°F65°F66°F70°F71°F74°F74°F75°F74°F74°F70°F68°F69°F69°F69°F68°F64°F63°F63°F63°F63°F62°F62°F63°F64°F65°F65°F66°F67°F71°F73°F74°F74°F72°F70°F67°F64°F61°F59°F57°F56°F54°F53°F52°F51°F
Feels Like 66°F65°F65°F66°F66°F66°F71°F72°F74°F74°F76°F74°F74°F70°F68°F69°F69°F69°F68°F64°F63°F63°F63°F63°F62°F62°F63°F64°F65°F66°F67°F68°F71°F74°F75°F74°F72°F70°F67°F64°F61°F59°F57°F55°F54°F52°F51°F50°F
Cloudiness 100%100%100%100%100%100%100%100%100%100%100%100%100%100%100%100%100%100%100%100%100%100%99%100%80%69%72%100%100%100%100%100%98%24%22%29%34%27%23%0%0%0%0%0%0%0%0%0%
Visibility 6 mi6 mi6 mi6 mi6 mi6 mi6 mi6 mi6 mi6 mi6 mi6 mi6 mi6 mi6 mi6 mi6 mi6 mi6 mi6 mi6 mi6 mi6 mi6 mi6 mi6 mi6 mi6 mi6 mi6 mi6 mi6 mi5 mi6 mi6 mi6 mi6 mi6 mi6 mi6 mi6 mi6 mi6 mi6 mi6 mi6 mi6 mi6 mi
Precipitation 74%80%80%1%0%0%0%0%0%0%0%0%0%0%0%0%0%0%0%99%100%100%100%100%100%80%80%0%0%20%35%71%100%100%100%100%80%80%80%0%0%0%0%0%0%0%0%0%
Humidity 87%89%91%90%91%87%80%76%70%73%67%68%68%69%71%65%60%59%62%84%87%94%92%91%94%92%92%92%91%91%91%90%84%79%77%74%69%70%74%81%87%90%90%92%91%92%93%93%
Dew Point 61°F62°F62°F63°F62°F62°F64°F63°F64°F64°F64°F62°F62°F59°F58°F57°F55°F54°F55°F59°F59°F61°F60°F60°F60°F60°F60°F61°F62°F63°F63°F64°F65°F66°F66°F65°F61°F60°F59°F58°F57°F56°F54°F53°F52°F51°F50°F49°F
Pressure 29.97"29.97"29.97"30"30"30"30"29.97"29.94"29.94"29.91"29.91"29.88"29.88"29.85"29.88"29.88"29.88"29.88"29.88"29.88"29.88"29.85"29.85"29.83"29.83"29.83"29.83"29.83"29.83"29.8"29.8"29.8"29.8"29.8"29.8"29.8"29.83"29.85"29.88"29.91"29.94"29.97"29.97"30"30"30"30"
Wind Speed 6.8 mph6.7 mph6 mph8.2 mph7.5 mph10.1 mph11.8 mph13.1 mph14.2 mph13.6 mph15.2 mph13.6 mph14.6 mph14.7 mph12.7 mph13.6 mph14.4 mph15.6 mph15 mph13.4 mph13.1 mph15.8 mph16.8 mph18 mph17.2 mph17.1 mph17.7 mph17.8 mph18 mph18.3 mph18.6 mph20 mph22 mph20.4 mph19.8 mph17.8 mph17.9 mph15.7 mph11.6 mph7.8 mph6.7 mph5.3 mph5.4 mph5 mph5.3 mph5.1 mph4.8 mph3.9 mph
Wind
Direction
172°
S
159°
SSE
176°
S
189°
S
153°
SSE
149°
SSE
178°
S
179°
S
181°
S
174°
S
184°
S
173°
S
173°
S
179°
S
167°
SSE
174°
S
180°
S
181°
S
180°
S
180°
S
191°
S
183°
S
181°
S
184°
S
187°
S
190°
S
192°
SSW
199°
SSW
206°
SSW
205°
SSW
208°
SSW
211°
SSW
227°
SW
235°
SW
245°
WSW
258°
WSW
261°
W
250°
WSW
249°
WSW
256°
WSW
292°
WNW
296°
WNW
303°
WNW
306°
NW
297°
WNW
301°
WNW
302°
WNW
286°
WNW

Daily Forecast

Date High Low Precip. Humidity
Today
Apr 16

Rain
75 °F
64 °F
100%
76%
Wednesday
Apr 17

Rain
74 °F
57 °F
100%
90%
Thursday
Apr 18

Rain
72 °F
49 °F
100%
56%
Friday
Apr 19

Rain
63 °F
51 °F
100%
72%
Saturday
Apr 20

Clouds
61 °F
44 °F
0%
48%
Sunday
Apr 21

Clouds
52 °F
43 °F
0%
65%
Monday
Apr 22

Clear
62 °F
38 °F
0%
55%
Tuesday
Apr 23

Clouds
64 °F
45 °F
0%
80%
Wednesday
Apr 24

Rain
68 °F
46 °F
100%
59%
Thursday
Apr 25

Rain
56 °F
50 °F
100%
79%
Friday
Apr 26

Clouds
61 °F
45 °F
0%
49%
Saturday
Apr 27

Clear
63 °F
40 °F
0%
48%
Sunday
Apr 28

Clouds
68 °F
45 °F
0%
56%
Monday
Apr 29

Clouds
72 °F
50 °F
0%
58%
Tuesday
Apr 30

Rain
73 °F
56 °F
100%
67%
Wednesday
May 1

Rain
57 °F
51 °F
100%
97%

Temperature 8-14 Day Outlook



Precipitation 8-14 Day Outlook






About Us
Contact Us
Site Map
Search Site
Advertise With Us
   
RoughRiver.USLakes.info
THE ROUGH RIVER LAKE WEBSITE

Copyright 2024, Lakes Online
Privacy    |    Legal